CZ-6A DEB, 54295

Orbit data source: Space-Track

CZ-6A DEB, 54295 is space debris in SSO originally from a launch on Fri, 11 Nov 2022 UTC launched from the Taiyaun Space Center, China (TSC). Debris objects in space refer to the collection of defunct objects orbiting the Earth. Examples of debris include non-operational satellites, rocket bodies, and fragments generated from explosions, collisions, or faulty payload assembly.

Loading next visibility...
Identifier
54295, 2022-151AN
Orbit
SSO
Country
Flag of CNCN / PRC
Related business
Manufacturer
SAST
Mission
Spacecraft
Bus & Motor
Unknown
Mass
Unknown
Launch date (UTC)
2022-11-11 (3 years ago)
Launch vehicle
Unknown
Launch site
Taiyaun Space Center, China (TSC)
Object type
Payload
Rocket body
Debris
Shape & HBR
Unknown shape, 0.1 m
Radar Cross Section
Small (<0.1 m²)

Expand to show TLE details & history
Last TLE update: 10 hours ago

TLE from 10 hours ago
0 CZ-6A DEB
1 54295U 22151AN  25354.00357933  .00003804  00000-0  13651-2 0  9998
2 54295  98.7399   2.8044 0143115 324.9980  34.1858 14.28921144160440
Epoch: 2025-12-20T00:05Z
TLE epoch observation values (Epoch: 2025-12-20T00:05:09.254Z)
Latitude
0.00008°
Longitude
-87.32079°
Altitude
713.796 km
Speed
7.543 km/s
True Right ascension
00h 11m 13s
True Declination
0° 00' 00"
Sunlit
Object was in daylight at epoch
Visualization orbit readout
Latitude
Unknown
Longitude
Unknown
Altitude
Unknown
Speed
Unknown
Apparent Right ascension
Unknown
Apparent Declination
Unknown
Sunlit
N/A
Visualization observer readout
Local Sidereal Time
08:32:40
Azimuth
Unknown
Elevation
Unknown
Doppler factor
Unknown
Orbital elements
Apogee altitude
895.109 km
Perigee altitude
689.864 km
Semi-major axis
7,170.624 km
Eccentricity
0.01431
Inclination
98.7399°
RAAN
2.8044°
Arg. of periapsis
324.998°
True anomaly
35.12106°
Mean anomaly
34.1858°
Eccentric anomaly
34.65204°
Mean motion
3.57444 °/min
Orbital period
100.72 mins
BSTAR
0.0013651
Loading maneuver chart data...
Computing Atmospheric mass density...
Loading historical data...
Loading historical data...
Loading historical data...
Loading historical data...
Loading historical data...
Loading historical data...
Loading historical data...

Documentation

Showing up to 5 results
|